TGPYTNCM

Guest
Details From TGPY - Grenada/Bishop International
To TNCM - St Maarten - Princess Juliana Intl
Flight Number -
Tags decoded
Created
Modified
Stats Distance 469 nm / 868 km
Max Altitude 0 ft / 0 m
Waypoints 3
Social Downloads 0
Likes 0
Share VATSIM

Download

Looking for another format? Having issues loading an existing format? Contact us
Advertisement - Login to hide

Notes

Requested: TGPY LACEC TNCM

Route

TGPY LACEC TNCM

ID Type Via Altitude Latitude Longitude Leg Dist Tot Dist Heading (true) Name
O TGPY APT - 0 ft / 0 m 12.00425˚ -61.78619˚ - 0 nm - Grenada/Bishop International
LACEC FIX - 0 ft / 0 m 17.80890˚ -64.57080˚ 384 nm 384 nm 335° / 335° -
O TNCM APT - 0 ft / 0 m 18.04089˚ -63.10897˚ 84 nm 468 nm 80° / 81° St Maarten - Princess Juliana Intl

Altitude Profile

Advertisement - Login to hide

Weather


0- 5 10 15 20 25 30 35+ Temperature / ° C

Clouds and Precipitation
Forecast for 2017-12-14 18:00 UTC. Updated 2 hours ago

Ground ~20,000 ft ~40,000 ft Winds

TGPY

Details ICAO TGPY (GND)
Name Grenada/Bishop International
Region Grenada
Timezone America/Grenada (UTC-4.0)
Stats Elevation 41 ft / 12 m (AMSL)
Location 12.004247° -61.786192°
Runways 1
Magnetic Variation 14.799° W

METAR

TGPY 141500Z 10016KT 9999 FEW021 29/25 Q1015 NOSIG

Decode

TAF

Not found

Departure Runways

ID Width Length Bearing (true) Bearing (mag) Surface Threshold Offset Overrun Length
10 148 ft / 45 m 9,012 ft / 2,747 m 90.26° 105.06° Asphalt 0 ft / 0 m 0 ft / 0 m
28 148 ft / 45 m 9,012 ft / 2,747 m 270.26° 285.06° Asphalt 0 ft / 0 m 0 ft / 0 m

TNCM

Details ICAO TNCM (SXM)
Name St Maarten - Princess Juliana Intl
Region Caribbean Netherlands, Aruba, Curaçao, Sint Maarten
Timezone Unknown (UTC+0.0)
Stats Elevation 12 ft / 4 m (AMSL)
Location 18.040889° -63.108974°
Runways 1
Magnetic Variation 14.325° W

METAR

TNCM 141500Z 12008KT 090V160 9999 FEW024 29/21 Q1018 A3007 NOSIG

Decode

TAF

TAF TNCM 141140Z 1412/1512 09008KT P6SM SCT020

Decode

Destination Runways

ID Width Length Bearing (true) Bearing (mag) Surface Threshold Offset Overrun Length
10 148 ft / 45 m 7,464 ft / 2,275 m 81.43° 95.76° Asphalt 0 ft / 0 m 151 ft / 46 m
28 148 ft / 45 m 7,464 ft / 2,275 m 261.44° 275.77° Asphalt 397 ft / 121 m 0 ft / 0 m

Popular Alternatives